Monte Cimone, Italy

7:02 AM CEST on April 28, 2017 (GMT +0200)
Monte Cimone

Weather History for LIVC - November, 2012

Change the Weather History Date:

Tuesday, November 20, 2012

  Actual Average Record
Temperature  
Mean Temperature 33 °F -  
Max Temperature 34 °F 32 °F 48 °F (2015)
Min Temperature 32 °F 24 °F 12 °F (1998)
Degree Days  
Heating Degree Days 32    
Moisture  
Dew Point 29 °F    
Average Humidity 86    
Maximum Humidity 93    
Minimum Humidity 65    
Precipitation  
Precipitation 0.00 in 0.08 in - ()
Sea Level Pressure  
Sea Level Pressure 30.03 in    
Wind  
Wind Speed 20 mph ()    
Max Wind Speed 34 mph    
Max Gust Speed -    
Visibility 0.6 miles    
Events Fog    
Averages and records for this station are not official NWS values.
T = Trace of Precipitation, MM = Missing Value Source: Averaged Metar Reports

Daily Weather History Graph

Daily Weather History Graph

Search for Another Location

Airport or City:

Trip Planner

Search our weather history database for the weather conditions in past years. The results will help you decide how hot, cold, wet, or windy it might be!

Date:

Astronomy

Nov. 20, 2012 Rise Set
Actual Time 7:19 AM CET 4:45 PM CET
Civil Twilight 6:47 AM CET 5:17 PM CET
Nautical Twilight 6:12 AM CET 5:53 PM CET
Astronomical Twilight 5:37 AM CET 6:27 PM CET
Moon 12:38 PM CET (11/20) No Moon Set
Length of Visible Light 10h 29m
Length of Day
9h 26m
Waxing Crescent, 48% of the Moon is Illuminated
Nov 20
Waxing Crescent
Nov 20
First Quarter
Nov 28
Full
Dec 6
Last Quarter
Dec 13
New

Hourly Weather History & Observations

Time (CET) Temp. Windchill Dew Point Humidity Pressure Visibility Wind Dir Wind Speed Gust Speed Precip Events Conditions
12:55 AM 32.0 °F 19.8 °F 28.4 °F 87% 29.98 in 0.0 mi ENE 20.7 mph - N/A Fog Fog
1:55 AM 32.0 °F 19.2 °F 28.4 °F 87% 29.98 in 0.0 mi East 23.0 mph - N/A Fog Fog
2:55 AM 32.0 °F 18.9 °F 28.4 °F 87% 29.98 in 0.0 mi NE 24.2 mph - N/A Fog Fog
5:55 AM 32.0 °F 18.6 °F 28.4 °F 87% 29.98 in 0.0 mi NE 25.3 mph - N/A Fog Fog
6:55 AM 32.0 °F 18.4 °F 28.4 °F 87% 29.98 in 0.0 mi NE 26.5 mph - N/A Fog Fog
7:00 AM 32 °F - 29 °F 85%  in 0 mi NE 26.5 mph - - Fog Heavy Fog
7:55 AM 32.0 °F 18.9 °F 30.2 °F 93% 30.01 in 0.0 mi ENE 24.2 mph - N/A Fog Fog
8:55 AM 33.8 °F 21.9 °F 30.2 °F 87% 30.01 in 0.0 mi ENE 21.9 mph - N/A Fog Fog
9:55 AM 33.8 °F 22.2 °F 30.2 °F 87% 30.04 in 0.0 mi ENE 20.7 mph - N/A Fog Fog
10:55 AM 33.8 °F 24.3 °F 30.2 °F 87% 30.04 in 0.0 mi ENE 13.8 mph - N/A Fog Fog
11:55 AM 33.8 °F 24.3 °F 32.0 °F 93% 30.04 in 0.0 mi ENE 13.8 mph - N/A Fog Fog
12:55 PM 33.8 °F 25.3 °F 32.0 °F 93% 30.04 in 0.0 mi ENE 11.5 mph - N/A Fog Fog
1:00 PM 35 °F - 32 °F 83%  in 0 mi ENE 11.5 mph - - Fog Heavy Fog
1:55 PM 33.8 °F 23.9 °F 32.0 °F 93% 30.04 in 0.0 mi NE 15.0 mph - N/A Fog Fog
2:55 PM 33.8 °F 23.5 °F 30.2 °F 87% 30.04 in 0.0 mi NE 16.1 mph - N/A Fog Fog
3:55 PM 33.8 °F 22.8 °F 30.2 °F 87% 30.04 in 0.5 mi East 18.4 mph - N/A Fog Fog
4:55 PM 33.8 °F 23.2 °F 30.2 °F 87% 30.04 in - NE 17.3 mph - N/A   Clear
5:55 PM 32.0 °F 19.5 °F 28.4 °F 87% 30.06 in - East 21.9 mph - N/A   Clear
6:55 PM 33.8 °F 21.3 °F 26.6 °F 75% 30.04 in - NNE 24.2 mph - N/A   Clear
7:00 PM 33 °F - 26 °F 65%  in 9 mi NNE 24.2 mph - -   Partly Cloudy
7:55 PM 32.0 °F 17.4 °F 26.6 °F 80% 30.06 in - North 31.1 mph - N/A   Clear
8:55 PM 32.0 °F 17.9 °F 26.6 °F 80% 30.04 in - North 28.8 mph - N/A   Clear
9:55 PM 32.0 °F 17.9 °F 28.4 °F 87% 30.04 in - North 28.8 mph - N/A   Clear
10:55 PM 32.0 °F 17.2 °F 28.4 °F 87% 30.06 in - North 32.2 mph - N/A   Clear
11:55 PM 32.0 °F 16.7 °F 28.4 °F 87% 30.04 in - North 34.5 mph - N/A   Clear